When you browse on this site, cookies collect data to enhance your experience and personalize the content and advertising you see.
Visit our Privacy Policy to learn more. By continuing to use the site, you agree to this use of cookies and data.
EN

Hourly Weather Smolice

Today, 8 August, Saturday

Time Temperature Precipitation Wind Pressure Humidity
00:00 +23°C° 0 mm 2 mps 753 mmHg 81%
01:00 +23°C° 0 mm 2 mps 753 mmHg 83%
02:00 +21°C° 0 mm 2 mps 753 mmHg 85%
03:00 +21°C° 0 mm 2 mps 753 mmHg 87%
04:00 +21°C° 0 mm 2 mps 753 mmHg 89%
05:00 +23°C° 0 mm 2 mps 753 mmHg 86%
06:00 +24°C° 0 mm 2 mps 753 mmHg 83%
07:00 +25°C° 0 mm 2 mps 753 mmHg 79%
08:00 +26°C° 0 mm 2 mps 753 mmHg 72%
09:00 +28°C° 0 mm 3 mps 753 mmHg 66%
10:00 +29°C° 0 mm 3 mps 753 mmHg 59%
11:00 +30°C° 0.2 mm 3 mps 753 mmHg 56%
12:00 +30°C° 0.2 mm 2 mps 753 mmHg 53%
13:00 +31°C° 0 mm 2 mps 752 mmHg 49%
14:00 +31°C° 0 mm 2 mps 752 mmHg 49%
15:00 +31°C° 0 mm 2 mps 752 mmHg 49%
16:00 +31°C° 0 mm 2 mps 751 mmHg 49%
17:00 +30°C° 0 mm 2 mps 751 mmHg 54%
18:00 +28°C° 0 mm 2 mps 751 mmHg 59%
19:00 +27°C° 0 mm 2 mps 751 mmHg 64%
20:00 +26°C° 0 mm 2 mps 751 mmHg 67%
21:00 +25°C° 0 mm 2 mps 751 mmHg 69%
22:00 +24°C° 0 mm 2 mps 751 mmHg 71%
23:00 +24°C° 0 mm 2 mps 751 mmHg 73%

Tomorrow, 9 August, Sunday

Time Temperature Precipitation Wind Pressure Humidity
00:00 +24°C° 0 mm 2 mps 751 mmHg 75%
01:00 +23°C° 0 mm 1 mps 751 mmHg 77%
02:00 +23°C° 0.1 mm 1 mps 751 mmHg 78%
03:00 +22°C° 0.1 mm 1 mps 751 mmHg 79%
04:00 +22°C° 0.1 mm 1 mps 751 mmHg 81%
05:00 +23°C° 0.1 mm 1 mps 751 mmHg 77%
06:00 +22°C° 0.1 mm 0 mps 751 mmHg 74%
07:00 +23°C° 0.1 mm 0 mps 751 mmHg 71%
08:00 +27°C° 0.2 mm 1 mps 751 mmHg 67%
09:00 +28°C° 0.2 mm 1 mps 751 mmHg 62%
10:00 +29°C° 0.2 mm 1 mps 751 mmHg 58%
11:00 +29°C° 0 mm 1 mps 751 mmHg 55%
12:00 +30°C° 0 mm 2 mps 750 mmHg 52%
13:00 +31°C° 0 mm 2 mps 750 mmHg 49%
14:00 +31°C° 0 mm 2 mps 750 mmHg 49%
15:00 +31°C° 0 mm 2 mps 750 mmHg 49%
16:00 +31°C° 0 mm 2 mps 749 mmHg 49%
17:00 +29°C° 0 mm 2 mps 749 mmHg 54%
18:00 +28°C° 0 mm 1 mps 749 mmHg 59%
19:00 +27°C° 0 mm 1 mps 749 mmHg 64%
20:00 +26°C° 0.3 mm 1 mps 749 mmHg 67%
21:00 +25°C° 0.3 mm 1 mps 749 mmHg 70%
22:00 +24°C° 0.3 mm 1 mps 749 mmHg 73%
23:00 +23°C° 0.1 mm 1 mps 749 mmHg 75%

Day after tomorrow, 10 August, Monday

Time Temperature Precipitation Wind Pressure Humidity
00:00 +23°C° 0.1 mm 1 mps 749 mmHg 78%
01:00 +22°C° 0.1 mm 1 mps 749 mmHg 80%
02:00 +22°C° 0 mm 1 mps 749 mmHg 82%
03:00 +22°C° 0 mm 1 mps 749 mmHg 83%
04:00 +21°C° 0 mm 1 mps 749 mmHg 85%
05:00 +21°C° 0 mm 2 mps 749 mmHg 82%
06:00 +23°C° 0 mm 2 mps 749 mmHg 80%
07:00 +24°C° 0 mm 2 mps 749 mmHg 77%
08:00 +25°C° 0 mm 2 mps 749 mmHg 72%
09:00 +26°C° 0 mm 2 mps 749 mmHg 67%
10:00 +27°C° 0 mm 2 mps 749 mmHg 62%
11:00 +28°C° 0 mm 2 mps 749 mmHg 59%
12:00 +28°C° 0 mm 2 mps 749 mmHg 56%
13:00 +29°C° 0 mm 2 mps 749 mmHg 53%
14:00 +29°C° 0.2 mm 3 mps 749 mmHg 54%
15:00 +29°C° 0.2 mm 3 mps 749 mmHg 56%
16:00 +29°C° 0.2 mm 3 mps 749 mmHg 57%
17:00 +27°C° 0.1 mm 3 mps 749 mmHg 62%
18:00 +26°C° 0.1 mm 3 mps 749 mmHg 67%
19:00 +25°C° 0.1 mm 2 mps 749 mmHg 72%
20:00 +24°C° 0 mm 2 mps 749 mmHg 74%
21:00 +23°C° 0 mm 2 mps 749 mmHg 76%
22:00 +21°C° 0 mm 3 mps 750 mmHg 79%
23:00 +21°C° 0 mm 2 mps 750 mmHg 81%

11 August, Tuesday

Time Temperature Precipitation Wind Pressure Humidity
00:00 +20°C° 0 mm 2 mps 750 mmHg 84%
01:00 +20°C° 0 mm 2 mps 750 mmHg 86%
02:00 +19°C° 0 mm 2 mps 750 mmHg 88%
03:00 +19°C° 0 mm 2 mps 750 mmHg 90%
04:00 +19°C° 0 mm 2 mps 750 mmHg 92%
05:00 +20°C° 0 mm 2 mps 750 mmHg 88%
06:00 +21°C° 0 mm 2 mps 750 mmHg 85%
07:00 +23°C° 0 mm 2 mps 750 mmHg 81%
08:00 +24°C° 0 mm 3 mps 750 mmHg 75%
09:00 +26°C° 0 mm 3 mps 750 mmHg 68%
10:00 +27°C° 0 mm 3 mps 750 mmHg 61%
11:00 +28°C° 0.1 mm 3 mps 750 mmHg 57%
12:00 +29°C° 0.1 mm 4 mps 750 mmHg 53%
13:00 +29°C° 0.1 mm 4 mps 750 mmHg 50%
14:00 +29°C° 0 mm 4 mps 750 mmHg 51%
15:00 +29°C° 0 mm 4 mps 750 mmHg 52%
16:00 +29°C° 0 mm 5 mps 750 mmHg 53%
17:00 +27°C° 0.1 mm 4 mps 750 mmHg 58%
18:00 +26°C° 0.1 mm 4 mps 750 mmHg 64%
19:00 +24°C° 0.1 mm 3 mps 750 mmHg 69%
20:00 +22°C° 0 mm 3 mps 750 mmHg 70%
21:00 +21°C° 0 mm 3 mps 751 mmHg 71%
22:00 +20°C° 0 mm 4 mps 751 mmHg 71%
23:00 +19°C° 0 mm 3 mps 751 mmHg 74%

12 August, Wednesday

Time Temperature Precipitation Wind Pressure Humidity
00:00 +18°C° 0 mm 3 mps 751 mmHg 77%
01:00 +17°C° 0 mm 3 mps 751 mmHg 79%
02:00 +16°C° 0 mm 3 mps 751 mmHg 82%
03:00 +16°C° 0 mm 3 mps 751 mmHg 84%
04:00 +14°C° 0 mm 3 mps 752 mmHg 87%
05:00 +16°C° 0 mm 3 mps 752 mmHg 83%
06:00 +17°C° 0 mm 3 mps 752 mmHg 80%
07:00 +18°C° 0 mm 4 mps 752 mmHg 77%
08:00 +19°C° 0 mm 4 mps 752 mmHg 71%
09:00 +21°C° 0 mm 4 mps 752 mmHg 64%
10:00 +23°C° 0 mm 4 mps 752 mmHg 58%
11:00 +23°C° 0 mm 4 mps 752 mmHg 54%
12:00 +25°C° 0 mm 4 mps 752 mmHg 50%
13:00 +26°C° 0 mm 3 mps 752 mmHg 47%
14:00 +26°C° 0 mm 3 mps 752 mmHg 46%
15:00 +26°C° 0 mm 3 mps 751 mmHg 46%
16:00 +26°C° 0 mm 3 mps 751 mmHg 46%
17:00 +24°C° 0 mm 3 mps 751 mmHg 52%
18:00 +22°C° 0 mm 3 mps 751 mmHg 57%
19:00 +20°C° 0 mm 2 mps 751 mmHg 63%
20:00 +19°C° 0 mm 3 mps 751 mmHg 65%
21:00 +18°C° 0 mm 3 mps 751 mmHg 66%
22:00 +18°C° 0 mm 3 mps 752 mmHg 68%
23:00 +17°C° 0 mm 3 mps 752 mmHg 69%

13 August, Thursday

Time Temperature Precipitation Wind Pressure Humidity
00:00 +17°C° 0 mm 3 mps 751 mmHg 71%
01:00 +16°C° 0 mm 3 mps 751 mmHg 72%
02:00 +16°C° 0 mm 2 mps 751 mmHg 75%
03:00 +15°C° 0 mm 2 mps 751 mmHg 78%
04:00 +15°C° 0 mm 2 mps 751 mmHg 81%
05:00 +16°C° 0 mm 2 mps 751 mmHg 77%
06:00 +17°C° 0 mm 2 mps 751 mmHg 73%
07:00 +18°C° 0 mm 3 mps 751 mmHg 70%
08:00 +20°C° 0 mm 3 mps 751 mmHg 63%
09:00 +21°C° 0 mm 3 mps 751 mmHg 56%
10:00 +24°C° 0 mm 3 mps 751 mmHg 49%
11:00 +24°C° 0 mm 3 mps 750 mmHg 46%
12:00 +25°C° 0 mm 3 mps 750 mmHg 44%
13:00 +26°C° 0 mm 3 mps 750 mmHg 41%
14:00 +26°C° 0 mm 3 mps 750 mmHg 41%
15:00 +26°C° 0 mm 3 mps 749 mmHg 42%
16:00 +26°C° 0 mm 3 mps 749 mmHg 42%
17:00 +24°C° 0 mm 3 mps 749 mmHg 47%
18:00 +23°C° 0 mm 2 mps 749 mmHg 52%
19:00 +20°C° 0 mm 2 mps 749 mmHg 57%
20:00 +19°C° 0 mm 2 mps 749 mmHg 60%
21:00 +18°C° 0 mm 2 mps 749 mmHg 62%
22:00 +18°C° 0 mm 3 mps 749 mmHg 65%
23:00 +17°C° 0 mm 2 mps 749 mmHg 67%
Show more